Regional Weather Roundup
Issued by NWS

Home | Current Version | Previous Version | Text Only | Print | Product List | Glossary On
Versions: 1 2 3 4 5 6 7 8 9 10 11 12 13 14 15 16 17 18 19 20 21 22 23 24 25 26 27 28 29 30 31 32 33 34 35 36 37 38 39 40 41 42 43 44 45 46 47 48 49 50
000
ASUS44 KOUN 191700
RWROK

WEATHER ROUNDUP FOR OKLAHOMA
NATIONAL WEATHER SERVICE NORMAN OK
1200 PM CDT FRI SEP 19 2014

NOTE: "FAIR" INDICATES FEW OR NO CLOUDS BELOW 12,000 FEET WITH NO
      SIGNIFICANT WEATHER AND/OR OBSTRUCTIONS TO VISIBILITY.

OKZ001>007-009>012-014-015-017-191800-
NORTHWEST OKLAHOMA AND THE PANHANDLE

CITY           SKY/WX    TMP DP  RH WIND       PRES   REMARKS
GAGE           MOSUNNY   79  67  66 S12       30.02F
$$

OKZ016-021>023-033>039-044-045-191800-
SOUTHWEST OKLAHOMA

CITY           SKY/WX    TMP DP  RH WIND       PRES   REMARKS
LAWTON/REGL    MOSUNNY   83  65  54 SE8       30.00S
LAWTON/FT SILL PTSUNNY   82  68  61 VRB7      29.99S
FREDERICK      PTSUNNY   84  68  58 SE10      29.97S
CLINTON        PTSUNNY   81  66  60 S9        30.03F
HOBART         SUNNY     82  66  58 S9        30.01S
ALTUS AFB      PTSUNNY   82  68  61 S9        30.00S
$$

OKZ018>020-024>031-191800-
CENTRAL OKLAHOMA

CITY           SKY/WX    TMP DP  RH WIND       PRES   REMARKS
OKLAHOMA CITY  MOSUNNY   82  68  62 SE8       30.01S
OKC/WILEY POST SUNNY     81  68  64 S12       30.01S
OKC/TINKER AFB SUNNY     80  67  64 S10       30.01F
STILLWATER     PTSUNNY   79  70  74 S7        30.01S
GUTHRIE        MOSUNNY   77  70  79 SE9       30.01S
$$

OKZ008-013-054>072-191800-
NORTHEAST OKLAHOMA

CITY           SKY/WX    TMP DP  RH WIND       PRES   REMARKS
TULSA          CLOUDY    73  69  87 S6        30.01F FOG
TULSA/JONES    CLOUDY    72  69  90 S6        30.02S
PONCA CITY     SUNNY     79  69  71 S8        30.00S
BARTLESVILLE   CLOUDY    70  70 100 VRB3      30.03S FOG
MUSKOGEE       CLOUDY    75  68  78 SE10      30.04S
$$

OKZ032-040>043-046>053-073>077-191800-
SOUTH CENTRAL/SOUTHEAST OKLAHOMA

CITY           SKY/WX    TMP DP  RH WIND       PRES   REMARKS
MCALESTER      CLOUDY    78  70  76 VRB5      30.03S
$$




USA.gov is the U.S. government's official web portal to all federal, state and local government web resources and services.